Mildenhall RAF, United Kingdom

10:18 PM BST on April 30, 2017 (GMT +0100)
Mildenhall Air Base

Weather History for EGUN - November, 2012

Change the Weather History Date:

Saturday, November 17, 2012

  Actual Average Record
Temperature  
Mean Temperature 48 °F -  
Max Temperature 55 °F - - ()
Min Temperature 39 °F - - ()
Degree Days  
Heating Degree Days 17    
Moisture  
Dew Point 50 °F    
Average Humidity 100    
Maximum Humidity 100    
Minimum Humidity 100    
Precipitation  
Precipitation 0.02 in - - ()
Sea Level Pressure  
Sea Level Pressure 29.71 in    
Wind  
Wind Speed 7 mph ()    
Max Wind Speed 18 mph    
Max Gust Speed 25 mph    
Visibility 5.1 miles    
Events Rain    
T = Trace of Precipitation, MM = Missing Value Source: Averaged Metar Reports

Daily Weather History Graph

Daily Weather History Graph

Search for Another Location

Airport or City:

Trip Planner

Search our weather history database for the weather conditions in past years. The results will help you decide how hot, cold, wet, or windy it might be!

Date:

Astronomy

Nov. 17, 2012 Rise Set
Actual Time 7:23 AM GMT 4:02 PM GMT
Civil Twilight 6:45 AM GMT 4:40 PM GMT
Nautical Twilight 6:03 AM GMT 5:22 PM GMT
Astronomical Twilight 5:23 AM GMT 6:02 PM GMT
Moon 10:58 AM GMT (11/17) 7:54 PM GMT (11/17)
Length of Visible Light 9h 55m
Length of Day
8h 38m
Waxing Crescent, 18% of the Moon is Illuminated
Nov 17
Waxing Crescent
Nov 20
First Quarter
Nov 28
Full
Dec 6
Last Quarter
Dec 13
New

Hourly Weather History & Observations

Time (GMT) Temp. Windchill Dew Point Humidity Pressure Visibility Wind Dir Wind Speed Gust Speed Precip Events Conditions
12:13 AM 46.4 °F 42.9 °F 46.4 °F 100% 29.76 in 3.1 mi SSE 6.9 mph - N/A   Overcast
12:18 AM 46.4 °F 42.9 °F 46.4 °F 100% 29.76 in 2.5 mi South 6.9 mph - N/A   Overcast
12:58 AM 46.0 °F 41.9 °F 46.0 °F 100% 29.75 in 3.1 mi SSE 8.1 mph - N/A   Overcast
1:33 AM 46.4 °F 42.4 °F 46.4 °F 100% 29.73 in 3.1 mi South 8.1 mph - N/A   Overcast
1:38 AM 46.4 °F 42.4 °F 46.4 °F 100% 29.73 in 2.5 mi South 8.1 mph - N/A   Overcast
1:48 AM 46.4 °F 42.9 °F 46.4 °F 100% 29.73 in 2.5 mi South 6.9 mph - N/A   Overcast
1:53 AM 46.4 °F 42.9 °F 46.4 °F 100% 29.72 in - SSE 6.9 mph - N/A   Overcast
1:58 AM 46.8 °F - 46.8 °F 100% 29.73 in - SSE 8.1 mph - N/A   Overcast
2:08 AM 46.4 °F 42.4 °F 46.4 °F 100% 29.72 in 1.7 mi SSE 8.1 mph - N/A   Overcast
2:33 AM 46.4 °F 43.5 °F 46.4 °F 100% 29.71 in - SSE 5.8 mph - N/A   Overcast
2:43 AM 48.2 °F - 48.2 °F 100% 29.71 in 2.5 mi SSE 5.8 mph - N/A   Overcast
2:48 AM 48.2 °F - 48.2 °F 100% 29.71 in 3.1 mi South 5.8 mph - N/A   Overcast
2:58 AM 47.5 °F - 47.5 °F 100% 29.72 in 3.1 mi SSE 6.9 mph - N/A   Overcast
3:58 AM 48.4 °F - 48.4 °F 100% 29.69 in 3.7 mi SSE 8.1 mph - N/A   Overcast
4:28 AM 50.0 °F - 50.0 °F 100% 29.67 in 3.7 mi South 8.1 mph - N/A   Overcast
4:33 AM 50.0 °F - 50.0 °F 100% 29.67 in 3.7 mi South 6.9 mph - N/A   Overcast
4:38 AM 50.0 °F - 50.0 °F 100% 29.67 in 3.7 mi SSE 5.8 mph - N/A   Overcast
4:57 AM 50.0 °F - 50.0 °F 100% 29.66 in 3.7 mi South 5.8 mph - N/A Rain Light Rain
4:58 AM 49.8 °F - 49.8 °F 100% 29.67 in 3.7 mi South 5.8 mph - N/A Rain Light Rain
5:07 AM 50.0 °F - 50.0 °F 100% 29.66 in 3.7 mi South 5.8 mph - N/A   Overcast
5:17 AM 50.0 °F - 50.0 °F 100% 29.66 in 3.7 mi South 5.8 mph - N/A   Overcast
5:32 AM 50.0 °F - 50.0 °F 100% 29.67 in 3.7 mi South 6.9 mph - N/A   Overcast
5:42 AM 50.0 °F - 50.0 °F 100% 29.66 in 5.0 mi South 8.1 mph - N/A   Overcast
5:47 AM 51.8 °F - 51.8 °F 100% 29.66 in 5.0 mi South 8.1 mph - N/A   Overcast
5:58 AM 51.1 °F - 51.1 °F 100% 29.67 in 5.6 mi South 10.4 mph - N/A   Overcast
6:17 AM 51.8 °F - 51.8 °F 100% 29.66 in 5.0 mi South 6.9 mph - N/A   Overcast
6:22 AM 51.8 °F - 51.8 °F 100% 29.66 in 5.0 mi South 5.8 mph - N/A   Overcast
6:42 AM 51.8 °F - 51.8 °F 100% 29.66 in 5.0 mi South 5.8 mph - N/A   Overcast
6:57 AM 51.8 °F - 51.8 °F 100% 29.66 in 5.0 mi South 6.9 mph - N/A   Overcast
6:58 AM 51.6 °F - 51.6 °F 100% 29.67 in 5.0 mi South 6.9 mph - N/A   Overcast
7:13 AM 51.8 °F - 51.8 °F 100% 29.66 in 3.7 mi South 8.1 mph - N/A   Overcast
7:33 AM 51.8 °F - 51.8 °F 100% 29.66 in 3.1 mi South 6.9 mph - N/A   Overcast
7:48 AM 51.8 °F - 51.8 °F 100% 29.66 in 3.1 mi South 6.9 mph - N/A   Overcast
7:53 AM 51.8 °F - 51.8 °F 100% 29.66 in 2.5 mi South 6.9 mph - N/A   Overcast
7:58 AM 52.2 °F - 52.2 °F 100% 29.68 in 2.5 mi SSE 6.9 mph - N/A   Overcast
8:03 AM 51.8 °F - 51.8 °F 100% 29.67 in 3.1 mi SSE 5.8 mph - N/A   Overcast
8:08 AM 51.8 °F - 51.8 °F 100% 29.67 in 3.1 mi South 5.8 mph - N/A   Overcast
8:23 AM 53.6 °F - 53.6 °F 100% 29.67 in 3.1 mi South 6.9 mph - N/A   Mostly Cloudy
8:28 AM 53.6 °F - 53.6 °F 100% 29.67 in 3.7 mi South 8.1 mph - N/A   Overcast
8:43 AM 53.6 °F - 53.6 °F 100% 29.67 in 6.2 mi SSW 9.2 mph - N/A   Overcast
8:58 AM 54.0 °F - 54.0 °F 100% 29.68 in 6.2 mi SSW 9.2 mph - N/A   Overcast
9:13 AM 55.4 °F - 55.4 °F 100% 29.67 in 6.2 mi SSW 10.4 mph - N/A   Overcast
9:18 AM 55.4 °F - 55.4 °F 100% 29.67 in 6.2 mi SSW 10.4 mph - N/A   Overcast
9:22 AM 55.4 °F - 55.4 °F 100% 29.67 in 5.6 mi SSW 11.5 mph - N/A Rain Light Rain
9:27 AM 55.4 °F - 55.4 °F 100% 29.67 in 5.0 mi SSW 12.7 mph - N/A Rain Light Rain
9:32 AM 53.6 °F - 53.6 °F 100% 29.67 in 5.0 mi SW 10.4 mph - N/A Rain Light Rain
9:37 AM 53.6 °F - 53.6 °F 100% 29.67 in 3.7 mi SW 10.4 mph - N/A Rain Light Rain
9:42 AM 53.6 °F - 53.6 °F 100% 29.67 in 3.7 mi WSW 10.4 mph - N/A Rain Light Rain
9:45 AM 53.6 °F - 53.6 °F 100% 29.67 in 5.0 mi SW 9.2 mph - N/A   Overcast
9:49 AM 53.6 °F - 53.6 °F 100% 29.67 in 5.6 mi WSW 10.4 mph - N/A   Overcast
9:53 AM 53.6 °F - 53.6 °F 100% 29.67 in 5.6 mi WSW 13.8 mph 21.9 mph N/A Rain Light Rain
9:58 AM 54.1 °F - 54.1 °F 100% 29.68 in 6.2 mi West 18.4 mph 25.3 mph N/A Rain Light Rain
10:00 AM 53.6 °F - 53.6 °F 100% 29.68 in 6.2 mi WNW 17.3 mph 25.3 mph N/A Rain Light Rain
10:04 AM 53.6 °F - 53.6 °F 100% 29.68 in 6.2 mi WNW 12.7 mph 25.3 mph N/A   Overcast
10:09 AM 51.8 °F - 51.8 °F 100% 29.68 in 6.2 mi WNW 12.7 mph - N/A   Overcast
10:34 AM 50.0 °F - 50.0 °F 100% 29.70 in 6.2 mi WNW 9.2 mph - N/A   Overcast
10:58 AM 49.6 °F - 49.6 °F 100% 29.71 in 6.2 mi WNW 9.2 mph - N/A   Overcast
11:13 AM 50.0 °F - 50.0 °F 100% 29.70 in 6.2 mi WNW 8.1 mph - N/A   Overcast
11:28 AM 50.0 °F - 50.0 °F 100% 29.71 in 6.2 mi WNW 5.8 mph - N/A   Overcast
11:33 AM 50.0 °F - 50.0 °F 100% 29.71 in 6.2 mi WNW 6.9 mph - N/A   Overcast
11:58 AM 49.6 °F - 49.6 °F 100% 29.72 in 6.2 mi WNW 9.2 mph - N/A   Overcast
12:13 PM 50.0 °F - 50.0 °F 100% 29.71 in 6.2 mi WNW 8.1 mph - N/A   Overcast
12:18 PM 50.0 °F - 50.0 °F 100% 29.71 in 6.2 mi West 8.1 mph - N/A   Overcast
12:23 PM 50.0 °F - 50.0 °F 100% 29.71 in 6.2 mi WNW 9.2 mph - N/A   Overcast
12:28 PM 50.0 °F - 50.0 °F 100% 29.71 in 6.2 mi WNW 9.2 mph - N/A   Overcast
12:38 PM 50.0 °F - 50.0 °F 100% 29.72 in 6.2 mi WNW 8.1 mph - N/A   Overcast
12:48 PM 50.0 °F - 50.0 °F 100% 29.72 in 6.2 mi West 10.4 mph - N/A   Overcast
12:58 PM 50.0 °F - 50.0 °F 100% 29.73 in 6.2 mi West 10.4 mph - N/A   Overcast
1:03 PM 50.0 °F - 50.0 °F 100% 29.71 in 6.2 mi WNW 10.4 mph - N/A   Overcast
1:13 PM 50.0 °F - 50.0 °F 100% 29.72 in 6.2 mi West 8.1 mph - N/A   Overcast
1:18 PM 50.0 °F - 50.0 °F 100% 29.72 in 6.2 mi WNW 9.2 mph - N/A   Overcast
1:23 PM 50.0 °F - 50.0 °F 100% 29.72 in 6.2 mi WNW 6.9 mph - N/A   Overcast
1:33 PM 50.0 °F - 50.0 °F 100% 29.72 in 6.2 mi West 9.2 mph - N/A   Overcast
1:58 PM 51.1 °F - 51.1 °F 100% 29.73 in 6.2 mi WNW 9.2 mph - N/A   Mostly Cloudy
2:03 PM 50.0 °F - 50.0 °F 100% 29.72 in 6.2 mi West 12.7 mph - N/A   Mostly Cloudy
2:18 PM 50.0 °F - 50.0 °F 100% 29.72 in 6.2 mi WNW 8.1 mph - N/A   Mostly Cloudy
2:28 PM 50.0 °F - 50.0 °F 100% 29.73 in 6.2 mi West 10.4 mph - N/A   Scattered Clouds
2:53 PM 48.2 °F - 48.2 °F 100% 29.74 in 6.2 mi WNW 10.4 mph - N/A   Mostly Cloudy
2:58 PM 48.7 °F - 48.7 °F 100% 29.75 in 6.2 mi WNW 6.9 mph - N/A   Mostly Cloudy
3:13 PM 50.0 °F - 50.0 °F 100% 29.74 in 6.2 mi WNW 5.8 mph - N/A   Overcast
3:18 PM 48.2 °F - 48.2 °F 100% 29.74 in 6.2 mi WNW 5.8 mph - N/A   Overcast
3:23 PM 48.2 °F - 48.2 °F 100% 29.74 in 6.2 mi West 8.1 mph - N/A   Overcast
3:28 PM 48.2 °F - 48.2 °F 100% 29.74 in 6.2 mi WNW 8.1 mph - N/A   Overcast
3:53 PM 48.2 °F - 48.2 °F 100% 29.74 in 6.2 mi WNW 8.1 mph - N/A   Overcast
3:58 PM 48.9 °F - 48.9 °F 100% 29.75 in 6.2 mi WNW 5.8 mph - N/A   Overcast
4:08 PM 48.2 °F - 48.2 °F 100% 29.75 in 6.2 mi WNW 6.9 mph - N/A   Overcast
4:58 PM 44.6 °F 41.4 °F 44.6 °F 100% 29.77 in 6.2 mi West 5.8 mph - N/A   Overcast
5:58 PM 45.9 °F 41.7 °F 45.9 °F 100% 29.79 in 6.2 mi West 8.1 mph - N/A   Scattered Clouds
6:58 PM 45.3 °F 41.6 °F 45.3 °F 100% 29.80 in 6.2 mi WNW 6.9 mph - N/A   Overcast
7:58 PM 44.4 °F 42.0 °F 44.4 °F 100% 29.82 in 6.2 mi West 4.6 mph - N/A   Overcast
8:58 PM 43.3 °F 39.9 °F 43.3 °F 100% 29.83 in 6.2 mi WNW 5.8 mph - N/A   Clear
9:58 PM 43.0 °F 41.3 °F 43.0 °F 100% 29.84 in 6.2 mi SSW 3.5 mph - N/A   Clear
10:58 PM 41.2 °F 39.2 °F 41.2 °F 100% 29.85 in 6.2 mi WSW 3.5 mph - N/A   Partly Cloudy
11:58 PM 39.9 °F 36.7 °F 39.9 °F 100% 29.86 in 6.2 mi West 4.6 mph - N/A   Partly Cloudy